Regional Weather Roundup
Issued by NWS

Home | Current Version | Previous Version | Graphics & Text | Print | Product List | Glossary On
Versions: 1 2 3 4 5 6 7 8 9 10 11 12 13 14 15 16 17 18 19 20 21 22 23 24 25 26 27
000
ASUS45 KBOI 280710
RWRID

IDAHO REGIONAL WEATHER ROUNDUP
NATIONAL WEATHER SERVICE BOISE ID
100 AM MDT SAT MAY 28 2016

NOTE: "FAIR" INDICATES FEW OR NO CLOUDS BELOW 12000 FEET
WITH NO SIGNIFICANT WEATHER AND/OR OBSTRUCTIONS TO VISIBILITY

IDZ012-014-280800-
SOUTHWEST IDAHO


CITY           SKY/WX    TMP DP  RH WIND       PRES   REMARKS
BOISE          CLEAR     53  30  41 W8        29.99R
CALDWELL       CLEAR     51  34  52 W10       30.02R
MOUNTAIN HOME  CLEAR     51  33  50 NW10      29.98R
$$

IDZ016-017-280800-
SOUTHCENTRAL IDAHO


CITY           SKY/WX    TMP DP  RH WIND       PRES   REMARKS
BURLEY         CLEAR     47  31  53 SW12      29.96S
JEROME         CLEAR     47  30  51 S7        29.98R
TWIN FALLS     CLEAR     47  27  45 SW13      29.99R
$$

IDZ019>023-280800-
SOUTHEAST IDAHO


CITY           SKY/WX    TMP DP  RH WIND       PRES   REMARKS
IDAHO FALLS    CLEAR     47  35  63 W6        29.98R
POCATELLO      CLEAR     50  29  44 S13       29.98R
REXBURG        CLEAR     48  38  68 CALM      29.97R
$$

IDZ006-010-011-018-031-032-280800-
CENTRAL IDAHO MOUNTAINS


CITY           SKY/WX    TMP DP  RH WIND       PRES   REMARKS
MCCALL         CLEAR     42  30  62 CALM      30.02S
HAILEY         CLEAR     43  32  65 NW9       29.97S
STANLEY          N/A     32  26  78 CALM      30.03S
SALMON         CLOUDY    50  37  62 E5        29.99R
CHALLIS        MOCLDY    46  34  62 NW5       29.99S
$$

IDZ002-004-006-007-026-280800-
NORTHERN IDAHO


CITY           SKY/WX    TMP DP  RH WIND       PRES   REMARKS
LEWISTON       PTCLDY    50  39  66 SE5       30.03R
LOWELL           N/A     50  45  83 CALM      30.06S
COEUR D`ALENE  MOCLDY    50  36  57 SE10      29.97S
MULLAN PASS    PTCLDY    34  26  72 VRB7      30.02S WCI  28
$$




USA.gov is the U.S. government's official web portal to all federal, state and local government web resources and services.